STARLINK-35058, 65394

Orbit data source: Space-Track

STARLINK-35058, 65394 is a payload satellite owned by SpaceX/Seattle (US) in SSO that was launched on Sat, 30 Aug 2025 UTC via an FALCON 9 launch vehicle from the Air Force Western Test Range (AFWTR). Payload-class satellites include a variety of spacecraft equipped with specific instruments for various scientific and technological missions. These include communications satellites like Starlink; space stations such as the ISS; scientific satellites like the Hubble; Earth observation satellites from companies like Planet Labs, Umbra, and HawkEye 360; GPS; miniature CubeSats for education and research; and military/defense satellites.

Loading next visibility...
Identifier
65394, 2025-191R
Orbit
SSO
Country
Flag of USUS
Related business
Manufacturer
SpaceX/Seattle
Mission
Operational Commercial Communications
Bus & Motor
STARLINK V2MO, Unknown motor
Mass
575 kg wet, ~530 kg dry
Launch date (UTC)
2025-08-30 (7 months ago)
Launch vehicle
FALCON 9
Launch site
Air Force Western Test Range (AFWTR)
Object type
Payload
Rocket body
Debris
Shape & HBR
Box + 2 Pan, 17.7 m
Radar Cross Section
36.964 m², Large (>1 m²)

Expand to show TLE details & history
Last TLE update: 16 hours ago

TLE from 16 hours ago
0 STARLINK-35058
1 65394U 25191R   26093.64755002  .00009922  00000-0  69057-3 0  9996
2 65394  97.6031 326.1055 0002223  84.7942 275.3538 15.05666709 34027
Epoch: 2026-04-03T15:32Z
TLE epoch observation values (Epoch: 2026-04-03T15:32:28.321Z)
Latitude
-0.00008°
Longitude
-98.99117°
Altitude
552.382 km
Speed
7.586 km/s
True Right ascension
21h 44m 25s
True Declination
0° 00' 00"
Sunlit
Object was in daylight at epoch
Visualization orbit readout
Latitude
Unknown
Longitude
Unknown
Altitude
Unknown
Speed
Unknown
Apparent Right ascension
Unknown
Apparent Declination
Unknown
Sunlit
N/A
Visualization observer readout
Local Sidereal Time
13:20:55
Azimuth
Unknown
Elevation
Unknown
Doppler factor
Unknown
Orbital elements
Apogee altitude
547.993 km
Perigee altitude
544.914 km
Semi-major axis
6,924.59 km
Eccentricity
0.00022
Inclination
97.6031°
RAAN
326.1055°
Arg. of periapsis
84.7942°
True anomaly
275.32844°
Mean anomaly
275.3538°
Eccentric anomaly
275.34112°
Mean motion
3.76662 °/min
Orbital period
95.58 mins
BSTAR
0.00069057
Loading maneuver chart data...
Computing Atmospheric mass density...
Loading historical data...
Loading historical data...
Loading historical data...
Loading historical data...
Loading historical data...
Loading historical data...
Loading historical data...

Documentation

Showing up to 5 results
|